Regional Weather Roundup
Issued by NWS

Home | Current Version | Previous Version | Text Only | Print | Product List | Glossary Off
Versions: 1 2 3 4 5 6 7 8 9 10 11 12 13 14 15 16 17 18 19 20 21 22 23 24 25 26 27 28 29 30 31 32 33 34 35 36 37 38 39 40 41 42 43 44 45 46 47 48 49 50

000
ASUS43 KLOT 161103
RWRIL

ILLINOIS REGIONAL WEATHER ROUNDUP
NATIONAL WEATHER SERVICE CHICAGO/ROMEOVILLE IL
600 AM CDT WED AUG 16 2017

NOTE: "FAIR" INDICATES FEW OR NO CLOUDS BELOW 12,000 FEET WITH NO
SIGNIFICANT WEATHER AND/OR OBSTRUCTIONS TO VISIBILITY.

* THESE STATIONS ARE NOT UNDER NWS QUALITY CONTROL. THEY ALSO MAY NOT
  REPORT WEATHER SUCH AS PRECIPITATION OR FOG.

ILZ001-002-007-009-015-016-024-161200-
NORTHWEST ILLINOIS

CITY           SKY/WX    TMP DP  RH WIND       PRES   REMARKS
MOLINE         CLOUDY    68  64  87 E8        29.94S FOG
STERLING*      CLEAR     63  62  97 E7        29.98S FOG
SAVANNA*       LGT RAIN  64  62  93 NE3       29.99S
$$

ILZ003-004-008-010-011-017-018-161200-
NORTH CENTRAL ILLINOIS

CITY           SKY/WX    TMP DP  RH WIND       PRES   REMARKS
ROCKFORD       MOCLDY    66  61  84 E7        30.01S
FREEPORT*      PTCLDY    58  58  99 E5        30.01F
ROCHELLE*      CLOUDY    64  63  95 NE6       30.01R
PERU*          CLEAR     63  61  94 E6        29.99R FOG
$$

ILZ005-006-012>014-019>023-161200-
NORTHEAST ILLINOIS

CITY           SKY/WX    TMP DP  RH WIND       PRES   REMARKS
CHICAGO-OHARE  PTCLDY    67  62  84 N5        30.01R
CHICAGO-MIDWAY PTCLDY    71  66  84 NE5       30.00R
AURORA         MOCLDY    63  63 100 NE6       30.00R
LANSING*       CLEAR     65  61  86 CALM      30.01R
JOLIET*        CLEAR     68  66  91 CALM      29.99R
WAUKEGAN       PTCLDY    59  59 100 CALM      30.01R FOG
DUPAGE AIRPORT MOCLDY    63  63 100 N5        30.00S
WHEELING       PTCLDY    63  63 100 CALM      30.02R
MORRIS*        PTCLDY    63  62  96 CALM      29.98S FOG
NORTHERLY ISL    N/A     71  65  81 NE6         N/A
$$

LMZ740>746-161200-
SOUTHERN LAKE MICHIGAN

STATION/POSITION SKY/WX   TEMP    WIND        PRES    VSBY  WAVE
                          AIR SEA DIR/SP/G                  HT/PER
                          (F)     (DEG/KT/KT) (MB)    (MI)  (FT/S)
SOUTHERN BUOY              70 71   50/  6/  6 1015.9          1/ 4
WILMETTE HARBOR            71 72   60/  6/  8   N/A           2/ 5
HARRISON CRIB              72      80/  7/  8   N/A
CALUMET HARBOR             72      60/  5/  7 1015.2R
BURNS HARBOR               69      90/  5/  7 1016.3S
MICHIGAN CITY              66      60/  3/  4   N/A
MICHIGAN CITY 6N           70 74   90/  6/  8   N/A           2/ 5
ST. JOSEPH                 69 73  130/  4/  6 1015.9R         2/ 4
$$

ILZ025>027-034>036-040-047-049-050-058-095>099-161200-
WEST-CENTRAL ILLINOIS

CITY           SKY/WX    TMP DP  RH WIND       PRES   REMARKS
QUINCY         CLEAR     71  68  90 E7        29.90R
GALESBURG*     CLEAR     67  66  97 E6        29.95S
MACOMB*        PTCLDY    66  66  99 CALM      29.96R FOG
JACKSONVILLE*  CLEAR     66  65  97 E3        29.93R FOG
PITTSFIELD*    PTCLDY    69  69  99 SE3       29.93R
$$

ILZ028>032-037-038-041>044-048-051>054-059>061-161200-
CENTRAL ILLINOIS

CITY           SKY/WX    TMP DP  RH WIND       PRES   REMARKS
PONTIAC        CLEAR     65  64  98 CALM      29.99R FOG
BLOOMINGTON    CLEAR     65  64  97 E6        29.99R
DECATUR        CLEAR     66  65  96 CALM      29.97R
PEORIA         CLEAR     69  68  96 NE7       29.96R
LACON*         CLEAR     64  64 100 NE3       29.97R FOG
LINCOLN*       CLEAR     66  66 100 CALM      29.96S
SPRINGFIELD    CLEAR     71  70  96 E5        29.95R
TAYLORVILLE    CLEAR     68  68 100 SE3       29.96R FOG
$$

ILZ033-039-045-046-055>057-062-063-161200-
EAST-CENTRAL ILLINOIS

CITY           SKY/WX    TMP DP  RH WIND       PRES   REMARKS
CHAMPAIGN      CLEAR     66  64  93 E3        29.98S FOG
RANTOUL*       CLEAR     68  67  97 E3        29.99R
MATTOON        CLEAR     69  69 100 S3        29.97R FOG
PARIS*         FOG       64  64 100 E3        29.99S VSB<1/4
$$

ILZ079-100>102-161200-
SOUTHWEST ILLINOIS

CITY           SKY/WX    TMP DP  RH WIND       PRES   REMARKS
BELLEVILLE     CLOUDY    72  71  96 SE6       29.96R
CAHOKIA*       RAIN      75  72  90 SE9       29.93R FOG
SPARTA*        LGT RAIN  73  72  99 SE6       29.96S
$$

ILZ064>066-069>071-074>076-080>082-084>086-088>090-092>094-161200-
SOUTH-CENTRAL ILLINOIS

CITY           SKY/WX    TMP DP  RH WIND       PRES   REMARKS
CARBONDALE     CLOUDY    72  72 100 N3        29.97R
CAIRO*         PTCLDY    71  71 100 CALM      29.96R
EFFINGHAM*     CLOUDY    66  66 100 CALM      29.99R FOG
MARION         CLOUDY    73  72  94 S3        29.98R
MT. VERNON     CLOUDY    69  69 100 CALM      29.97R FOG
CENTRALIA*     CLOUDY    71  71 100 CALM      29.97R FOG
SALEM*         CLOUDY    72  70  94 CALM      29.97R FOG
METROPOLIS*    CLEAR     71  71  99 CALM      29.98R FOG
$$

ILZ067-068-072-073-078-083-087-091-161200-
SOUTHEAST ILLINOIS

CITY           SKY/WX    TMP DP  RH WIND       PRES   REMARKS
LAWRENCEVILLE  CLOUDY    70  68  93 E3        29.99R FOG
FLORA*         CLOUDY    69  67  95 CALM      29.98R FOG
FAIRFIELD*     CLOUDY    68  68 100 CALM      29.97R FOG
HARRISBURG*    FOG       68  68 100 CALM      29.98R VSB 1/4
ROBINSON*      CLOUDY    63  63 100 CALM      30.00R FOG
CARMI*         MOCLDY    66  66 100 CALM      29.97S FOG
$$

ABBREVIATIONS USED IN REMARKS
   TC - TEMPERATURE IN CELSIUS
  WCI - WIND CHILL INDEX
   HX - HEAT INDEX
  VSB - VISIBILITY
$$




USA.gov is the U.S. government's official web portal to all federal, state and local government web resources and services.